Change the Weather History Date:

Monday, June 17, 2013

  Actual Average Record
Temperature  
Mean Temperature 78 °F 77 °F  
Max Temperature 85 °F 88 °F 98 °F (1936)
Min Temperature 71 °F 66 °F 47 °F (1974)
Degree Days  
Heating Degree Days 0 0  
Month to date heating degree days 0 0  
Since 1 June heating degree days 0 0  
Since 1 July heating degree days 3078 3238  
Cooling Degree Days 13 12  
Month to date cooling degree days 212 173  
Year to date cooling degree days 388 369  
Since 1 June cooling degree days 212 173  
Growing Degree Days 28 (Base 50)    
Moisture  
Dew Point 68 °F    
Average Humidity 79    
Maximum Humidity 93    
Minimum Humidity 64    
Precipitation  
Precipitation 0.03 in 0.14 in 2.94 in (1891)
Month to date precipitation 3.06 2.20  
Year to date precipitation 37.73 25.02  
Snow  
Snow 0.00 in 0.00 in - ()
Month to date snowfall 0.0 0.0  
Since 1 June snowfall 0.0 0.0  
Since 1 July snowfall 0.3 3.9  
Snow Depth 0.00 in    
Sea Level Pressure  
Sea Level Pressure 30.00 in    
Wind  
Wind Speed 3 mph (SSW)    
Max Wind Speed 20 mph    
Max Gust Speed 29 mph    
Visibility 10 miles    
Events Rain    
T = Trace of Precipitation, MM = Missing Value Source: NWS Daily Summary

Daily Weather History Graph

Daily Weather History Graph

Search for Another Location

Airport or City:

Trip Planner

Search our weather history database for the weather conditions in past years. The results will help you decide how hot, cold, wet, or windy it might be!

Date:

Astronomy

Jun. 17, 2013 Rise Set
Actual Time 6:26 AM EDT 8:57 PM EDT
Civil Twilight 5:56 AM EDT 9:26 PM EDT
Nautical Twilight 5:19 AM EDT 10:03 PM EDT
Astronomical Twilight 4:39 AM EDT 10:44 PM EDT
Moon 2:46 PM EDT (6/17) 1:49 AM EDT (6/17)
Length of Visible Light 15h 30m
Length of Day
14h 30m
First Quarter, 60% of the Moon is Illuminated
Jun 17
First Quarter
Jun 23
Full
Jun 30
Last Quarter
Jul 8
New
Jul 15
First Quarter

Hourly Weather History & Observations

Time (EDT) Temp. Heat Index Dew Point Humidity Pressure Visibility Wind Dir Wind Speed Gust Speed Precip Events Conditions
12:53 AM 72.0 °F - 69.1 °F 91% 30.03 in 10.0 mi Calm Calm - N/A   Clear
1:53 AM 72.0 °F - 68.0 °F 87% 30.04 in 10.0 mi SSW 3.5 mph - N/A   Clear
2:53 AM 71.1 °F - 68.0 °F 90% 30.02 in 10.0 mi South 4.6 mph - N/A   Clear
3:53 AM 71.1 °F - 68.0 °F 90% 30.02 in 10.0 mi Calm Calm - N/A   Clear
4:53 AM 71.1 °F - 68.0 °F 90% 30.01 in 10.0 mi Calm Calm - N/A   Scattered Clouds
5:46 AM 71.6 °F - 66.2 °F 83% 30.04 in 10.0 mi SE 3.5 mph - N/A   Overcast
5:53 AM 71.1 °F - 66.9 °F 87% 30.01 in 6.0 mi Calm Calm - N/A   Overcast
6:53 AM 71.1 °F - 66.9 °F 87% 30.02 in 10.0 mi South 3.5 mph - N/A   Mostly Cloudy
7:04 AM 71.6 °F - 66.2 °F 83% 30.04 in 10.0 mi Calm Calm - N/A   Mostly Cloudy
7:53 AM 72.0 °F - 66.9 °F 84% 30.02 in 10.0 mi South 3.5 mph - N/A   Overcast
8:18 AM 71.6 °F - 66.2 °F 83% 30.05 in 10.0 mi South 3.5 mph - N/A   Overcast
8:53 AM 71.1 °F - 68.0 °F 90% 30.03 in 3.0 mi Calm Calm - 0.00 in Rain Light Rain
9:08 AM 71.6 °F - 68.0 °F 88% 30.06 in 4.0 mi West 3.5 mph - 0.01 in   Light Drizzle
9:31 AM 71.6 °F - 69.8 °F 94% 30.06 in 8.0 mi Calm Calm - 0.01 in   Overcast
9:50 AM 71.6 °F - 69.8 °F 94% 30.05 in 10.0 mi SE 3.5 mph - 0.01 in   Mostly Cloudy
9:53 AM 72.0 °F - 69.1 °F 91% 30.04 in 10.0 mi SSE 4.6 mph - 0.01 in   Mostly Cloudy
10:53 AM 75.0 °F - 66.9 °F 76% 30.03 in 10.0 mi Calm Calm - 0.00 in Rain Light Rain
11:27 AM 73.4 °F - 64.4 °F 73% 30.05 in 10.0 mi Calm Calm - 0.01 in Rain Light Rain
11:53 AM 75.0 °F - 66.9 °F 76% 30.04 in 10.0 mi Calm Calm - 0.02 in   Mostly Cloudy
12:53 PM 78.1 °F - 69.1 °F 74% 30.04 in 10.0 mi Calm Calm - N/A   Mostly Cloudy
1:53 PM 80.1 °F 82.9 °F 69.1 °F 69% 30.01 in 10.0 mi Calm Calm - N/A   Mostly Cloudy
2:47 PM 80.6 °F 84.6 °F 71.6 °F 74% 30.00 in 10.0 mi SSE 5.8 mph - N/A   Mostly Cloudy
2:53 PM 81.0 °F 84.9 °F 71.1 °F 72% 29.97 in 10.0 mi Variable 4.6 mph - N/A   Mostly Cloudy
3:33 PM 82.4 °F 87.2 °F 71.6 °F 70% 29.98 in 10.0 mi SSW 4.6 mph - N/A   Scattered Clouds
3:53 PM 82.9 °F 87.5 °F 71.1 °F 67% 29.95 in 10.0 mi South 6.9 mph - N/A   Mostly Cloudy
4:53 PM 82.9 °F 88.0 °F 72.0 °F 69% 29.94 in 10.0 mi Variable 5.8 mph - N/A   Mostly Cloudy
5:43 PM 80.6 °F 82.7 °F 66.2 °F 61% 29.98 in 10.0 mi WSW 13.8 mph - 0.00 in Rain Light Rain
5:53 PM 78.1 °F - 66.0 °F 66% 29.96 in 10.0 mi West 6.9 mph - 0.00 in Rain Light Rain
6:53 PM 77.0 °F - 68.0 °F 74% 29.95 in 10.0 mi WNW 4.6 mph - 0.00 in   Overcast
7:53 PM 77.0 °F - 64.9 °F 66% 29.94 in 10.0 mi SSW 3.5 mph - N/A   Overcast
8:53 PM 75.9 °F - 64.9 °F 69% 29.94 in 10.0 mi SSW 3.5 mph - N/A   Overcast
9:53 PM 75.0 °F - 66.9 °F 76% 29.95 in 10.0 mi SSW 3.5 mph - 0.00 in Rain Light Rain
10:53 PM 73.9 °F - 68.0 °F 82% 29.94 in 10.0 mi SE 5.8 mph - 0.00 in   Mostly Cloudy
11:53 PM 73.0 °F - 69.1 °F 87% 29.92 in 10.0 mi Calm Calm - N/A   Mostly Cloudy